Radiation Dose at Monitoring Post of Fukushima Daini Nuclear Power Station
Date,Time,MP-1(microSv/h),MP-2(microSv/h),MP-3(microSv/h),MP-4(microSv/h),MP-5(microSv/h),MP-6(microSv/h),MP-7(microSv/h),Wind Direction,Wind Velocity(m/s),Rain
2019/04/22,00:00,0.208,0.192,0.312,0.293,0.277,0.155,0.095,west,2.5,No
2019/04/22,00:10,0.205,0.193,0.313,0.292,0.279,0.158,0.096,west,2.9,No
2019/04/22,00:20,0.206,0.193,0.314,0.293,0.278,0.156,0.096,west,2.7,No
2019/04/22,00:30,0.206,0.192,0.314,0.293,0.281,0.156,0.095,west-southwest,1.3,No
2019/04/22,00:40,0.205,0.191,0.313,0.293,0.278,0.156,0.096,-,CALM,No
2019/04/22,00:50,0.207,0.191,0.313,0.292,0.278,0.156,0.095,northwest,0.8,No
2019/04/22,01:00,0.206,0.191,0.312,0.293,0.279,0.157,0.095,-,CALM,No
2019/04/22,01:10,0.207,0.193,0.313,0.293,0.277,0.157,0.097,north-northwest,0.9,No
2019/04/22,01:20,0.206,0.192,0.315,0.291,0.280,0.156,0.096,northwest,0.9,No
2019/04/22,01:30,0.206,0.192,0.312,0.293,0.277,0.156,0.096,west-southwest,1.1,No
2019/04/22,01:40,0.207,0.193,0.313,0.292,0.280,0.157,0.096,south-southwest,2.0,No
2019/04/22,01:50,0.207,0.191,0.314,0.290,0.278,0.157,0.096,southwest,3.3,No
2019/04/22,02:00,0.206,0.191,0.313,0.293,0.278,0.156,0.097,southwest,2.2,No
2019/04/22,02:10,0.205,0.192,0.313,0.292,0.277,0.155,0.096,west,2.0,No
2019/04/22,02:20,0.205,0.192,0.313,0.292,0.278,0.156,0.095,west-southwest,1.7,No
2019/04/22,02:30,0.205,0.191,0.313,0.292,0.278,0.157,0.095,southwest,2.7,No
2019/04/22,02:40,0.206,0.192,0.313,0.291,0.276,0.155,0.095,west-southwest,4.2,No
2019/04/22,02:50,0.205,0.192,0.311,0.292,0.278,0.155,0.095,west-southwest,4.8,No
2019/04/22,03:00,0.206,0.192,0.313,0.291,0.276,0.156,0.095,west-southwest,3.3,No
2019/04/22,03:10,0.205,0.192,0.313,0.293,0.278,0.155,0.095,west-southwest,5.1,No
2019/04/22,03:20,0.206,0.192,0.312,0.291,0.275,0.155,0.095,west-southwest,4.4,No
2019/04/22,03:30,0.206,0.190,0.314,0.292,0.277,0.156,0.095,west-southwest,4.1,No
2019/04/22,03:40,0.206,0.191,0.312,0.292,0.276,0.155,0.095,west-southwest,3.7,No
2019/04/22,03:50,0.205,0.191,0.312,0.291,0.278,0.156,0.096,west-southwest,3.0,No
2019/04/22,04:00,0.207,0.192,0.311,0.292,0.277,0.156,0.094,west-southwest,2.6,No
2019/04/22,04:10,0.205,0.191,0.312,0.292,0.278,0.156,0.095,west,1.9,No
2019/04/22,04:20,0.207,0.191,0.313,0.292,0.277,0.156,0.095,west,2.5,No
2019/04/22,04:30,0.208,0.193,0.311,0.292,0.276,0.155,0.095,west,2.9,No
2019/04/22,04:40,0.206,0.191,0.313,0.290,0.278,0.155,0.095,west,3.1,No
2019/04/22,04:50,0.206,0.192,0.312,0.292,0.275,0.156,0.095,west,3.5,No
2019/04/22,05:00,0.205,0.191,0.312,0.290,0.277,0.156,0.094,west,3.8,No
2019/04/22,05:10,0.206,0.191,0.313,0.292,0.276,0.155,0.095,west,3.2,No
2019/04/22,05:20,0.207,0.193,0.310,0.292,0.279,0.156,0.096,north,1.1,No
2019/04/22,05:30,0.207,0.191,0.314,0.291,0.278,0.156,0.095,northeast,2.0,No
2019/04/22,05:40,0.207,0.191,0.312,0.294,0.277,0.155,0.096,northeast,2.4,No
2019/04/22,05:50,0.206,0.191,0.314,0.292,0.279,0.157,0.096,northeast,2.3,No
2019/04/22,06:00,0.206,0.191,0.314,0.292,0.279,0.157,0.095,north,3.0,No
2019/04/22,06:10,0.207,0.193,0.312,0.293,0.280,0.156,0.096,north-northwest,4.3,No
2019/04/22,06:20,0.206,0.192,0.314,0.290,0.278,0.157,0.096,north-northwest,4.6,No
2019/04/22,06:30,0.208,0.192,0.312,0.293,0.280,0.156,0.094,north-northwest,4.2,No
2019/04/22,06:40,0.207,0.192,0.313,0.292,0.277,0.156,0.096,north-northwest,2.8,No
2019/04/22,06:50,0.207,0.192,0.313,0.292,0.280,0.156,0.095,north-northwest,3.5,No
2019/04/22,07:00,0.205,0.193,0.311,0.293,0.277,0.156,0.096,north-northwest,3.4,No
2019/04/22,07:10,0.206,0.191,0.313,0.292,0.279,0.156,0.095,north-northwest,1.5,No
2019/04/22,07:20,0.206,0.191,0.312,0.291,0.276,0.156,0.095,north-northwest,1.4,No
2019/04/22,07:30,0.205,0.191,0.312,0.292,0.278,0.156,0.095,north-northeast,1.1,No
2019/04/22,07:40,0.205,0.191,0.310,0.289,0.277,0.155,0.094,north-northeast,1.7,No
2019/04/22,07:50,0.204,0.189,0.311,0.292,0.279,0.156,0.094,north-northeast,4.9,No
2019/04/22,08:00,0.206,0.192,0.311,0.289,0.276,0.155,0.094,north-northeast,3.8,No
2019/04/22,08:10,0.205,0.190,0.312,0.288,0.278,0.155,0.094,north-northeast,3.9,No
2019/04/22,08:20,0.207,0.191,0.311,0.291,0.275,0.154,0.093,north-northeast,4.3,No
2019/04/22,08:30,0.204,0.189,0.312,0.289,0.277,0.155,0.094,north-northeast,4.1,No
2019/04/22,08:40,0.203,0.190,0.311,0.287,0.276,0.156,0.093,north-northeast,3.3,No
2019/04/22,08:50,0.204,0.190,0.313,0.292,0.275,0.155,0.094,north-northeast,3.2,No
2019/04/22,09:00,0.204,0.191,0.311,0.290,0.277,0.155,0.094,north-northeast,3.0,No
2019/04/22,09:10,0.205,0.191,0.312,0.287,0.274,0.154,0.094,north-northeast,3.1,No
2019/04/22,09:20,0.205,0.191,0.312,0.290,0.276,0.154,0.094,north-northeast,2.1,No
2019/04/22,09:30,0.203,0.191,0.311,0.291,0.277,0.155,0.094,north-northeast,1.4,No
2019/04/22,09:40,0.205,0.191,0.310,0.290,0.276,0.155,0.094,north-northeast,1.8,No
2019/04/22,09:50,0.205,0.190,0.312,0.288,0.274,0.154,0.094,northeast,2.8,No
2019/04/22,10:00,0.204,0.191,0.310,0.286,0.278,0.155,0.095,northeast,4.8,No
2019/04/22,10:10,0.206,0.191,0.313,0.291,0.275,0.154,0.093,northeast,5.4,No
2019/04/22,10:20,0.204,0.189,0.310,0.291,0.274,0.154,0.094,northeast,5.9,No
2019/04/22,10:30,0.205,0.191,0.314,0.289,0.278,0.156,0.094,northeast,6.0,No
2019/04/22,10:40,0.206,0.190,0.311,0.288,0.276,0.153,0.094,northeast,5.9,No
2019/04/22,10:50,0.204,0.190,0.311,0.291,0.274,0.154,0.095,northeast,6.7,No
2019/04/22,11:00,0.207,0.190,0.311,0.292,0.278,0.154,0.094,northeast,5.3,No
2019/04/22,11:10,0.205,0.191,0.310,0.289,0.275,0.155,0.095,northeast,7.0,No
2019/04/22,11:20,0.204,0.190,0.311,0.289,0.275,0.155,0.094,northeast,5.7,No
2019/04/22,11:30,0.205,0.190,0.312,0.291,0.278,0.155,0.093,northeast,6.6,No
2019/04/22,11:40,0.203,0.192,0.309,0.292,0.277,0.154,0.094,north-northeast,7.3,No
2019/04/22,11:50,0.206,0.190,0.310,0.289,0.277,0.154,0.095,north-northeast,5.9,No
2019/04/22,12:00,0.205,0.192,0.312,0.291,0.279,0.155,0.094,north-northeast,6.3,No
2019/04/22,12:10,0.205,0.191,0.310,0.293,0.275,0.156,0.094,north-northeast,6.6,No
2019/04/22,12:20,0.206,0.191,0.310,0.291,0.275,0.153,0.095,north-northeast,5.9,No
2019/04/22,12:30,0.205,0.191,0.313,0.289,0.277,0.155,0.095,north-northeast,5.9,No
2019/04/22,12:40,0.206,0.190,0.311,0.291,0.277,0.155,0.095,northeast,6.3,No
2019/04/22,12:50,0.206,0.191,0.310,0.292,0.274,0.154,0.095,northeast,5.7,No
2019/04/22,13:00,0.205,0.191,0.307,0.290,0.277,0.155,0.093,northeast,5.6,No
2019/04/22,13:10,0.206,0.191,0.311,0.290,0.278,0.155,0.094,northeast,4.9,No
2019/04/22,13:20,0.206,0.192,0.312,0.288,0.274,0.155,0.094,northeast,5.1,No
2019/04/22,13:30,0.204,0.189,0.311,0.292,0.273,0.154,0.094,northeast,6.6,No
2019/04/22,13:40,0.206,0.191,0.308,0.292,0.278,0.154,0.094,north-northeast,5.0,No
2019/04/22,13:50,0.205,0.190,0.309,0.292,0.278,0.155,0.094,east-northeast,3.8,No
2019/04/22,14:00,0.204,0.190,0.313,0.289,0.276,0.155,0.094,northeast,3.9,No
2019/04/22,14:10,0.207,0.191,0.311,0.290,0.273,0.155,0.095,northeast,2.8,No
2019/04/22,14:20,0.205,0.190,0.310,0.292,0.277,0.154,0.095,north,3.5,No
2019/04/22,14:30,0.204,0.190,0.308,0.291,0.277,0.155,0.094,northeast,3.5,No
2019/04/22,14:40,0.206,0.192,0.313,0.290,0.276,0.155,0.094,northeast,3.9,No
2019/04/22,14:50,0.206,0.190,0.312,0.289,0.272,0.154,0.093,north-northeast,2.4,No
2019/04/22,15:00,0.205,0.189,0.309,0.293,0.274,0.154,0.094,northeast,3.3,No
2019/04/22,15:10,0.204,0.191,0.311,0.291,0.277,0.154,0.094,northeast,3.7,No
2019/04/22,15:20,0.206,0.191,0.313,0.293,0.277,0.154,0.094,northeast,3.5,No
2019/04/22,15:30,0.207,0.190,0.310,0.290,0.275,0.155,0.094,northeast,2.9,No
2019/04/22,15:40,0.204,0.191,0.312,0.291,0.274,0.155,0.094,northeast,2.9,No
2019/04/22,15:50,0.205,0.190,0.312,0.292,0.276,0.154,0.095,northeast,3.5,No
2019/04/22,16:00,0.205,0.192,0.313,0.291,0.279,0.155,0.094,northeast,2.8,No
2019/04/22,16:10,0.205,0.191,0.313,0.293,0.275,0.155,0.094,north-northeast,1.8,No
2019/04/22,16:20,0.206,0.191,0.313,0.291,0.274,0.154,0.095,north,3.1,No
2019/04/22,16:30,0.206,0.192,0.314,0.294,0.276,0.155,0.094,north-northeast,2.3,No
2019/04/22,16:40,0.205,0.192,0.311,0.291,0.278,0.155,0.094,north-northeast,2.6,No
2019/04/22,16:50,0.207,0.192,0.314,0.294,0.275,0.154,0.094,east-northeast,1.9,No
2019/04/22,17:00,0.205,0.191,0.309,0.291,0.274,0.155,0.093,northeast,2.6,No
2019/04/22,17:10,0.206,0.192,0.312,0.293,0.278,0.155,0.094,north-northeast,2.4,No
2019/04/22,17:20,0.205,0.191,0.311,0.292,0.275,0.155,0.094,north-northwest,2.9,No
2019/04/22,17:30,0.206,0.193,0.314,0.293,0.279,0.155,0.093,north-northwest,3.6,No
2019/04/22,17:40,0.205,0.190,0.312,0.291,0.277,0.155,0.094,north-northwest,3.8,No
2019/04/22,17:50,0.205,0.190,0.314,0.294,0.278,0.155,0.094,north,4.7,No
2019/04/22,18:00,0.205,0.191,0.313,0.292,0.276,0.155,0.094,north-northwest,3.8,No
2019/04/22,18:10,0.206,0.191,0.313,0.293,0.279,0.154,0.094,north-northwest,3.3,No
2019/04/22,18:20,0.205,0.191,0.312,0.292,0.275,0.155,0.094,north-northwest,3.0,No
2019/04/22,18:30,0.206,0.192,0.312,0.293,0.278,0.155,0.094,north-northwest,3.5,No
2019/04/22,18:40,0.205,0.191,0.314,0.294,0.276,0.155,0.094,north-northwest,4.5,No
2019/04/22,18:50,0.206,0.190,0.312,0.291,0.279,0.155,0.094,north-northwest,6.0,No
2019/04/22,19:00,0.206,0.191,0.314,0.295,0.276,0.154,0.095,north-northwest,5.9,No
2019/04/22,19:10,0.205,0.190,0.313,0.292,0.278,0.156,0.094,north-northwest,6.2,No
2019/04/22,19:20,0.206,0.191,0.314,0.292,0.276,0.155,0.095,north-northwest,7.1,No
2019/04/22,19:30,0.206,0.191,0.313,0.293,0.275,0.156,0.094,northwest,7.1,No
2019/04/22,19:40,0.206,0.191,0.313,0.292,0.277,0.155,0.094,north-northwest,7.1,No
2019/04/22,19:50,0.206,0.191,0.314,0.293,0.276,0.155,0.095,northwest,8.1,No
2019/04/22,20:00,0.205,0.192,0.313,0.292,0.277,0.156,0.094,north-northwest,9.2,No
2019/04/22,20:10,0.206,0.192,0.313,0.291,0.277,0.155,0.094,north-northwest,8.1,No
2019/04/22,20:20,0.206,0.193,0.314,0.295,0.277,0.155,0.094,northwest,6.7,No
2019/04/22,20:30,0.206,0.192,0.312,0.292,0.279,0.156,0.094,northwest,5.9,No
2019/04/22,20:40,0.207,0.191,0.314,0.291,0.277,0.156,0.094,north-northwest,6.0,No
2019/04/22,20:50,0.206,0.191,0.313,0.293,0.278,0.156,0.095,north-northwest,5.9,No
2019/04/22,21:00,0.206,0.191,0.313,0.292,0.276,0.155,0.094,north-northwest,5.7,No
2019/04/22,21:10,0.206,0.192,0.314,0.291,0.276,0.156,0.094,north-northwest,5.9,No
2019/04/22,21:20,0.206,0.192,0.314,0.293,0.278,0.155,0.094,north-northwest,5.5,No
2019/04/22,21:30,0.205,0.190,0.311,0.292,0.276,0.156,0.095,north-northwest,5.9,No
2019/04/22,21:40,0.206,0.192,0.313,0.294,0.276,0.156,0.094,north-northwest,5.7,No
2019/04/22,21:50,0.207,0.192,0.313,0.293,0.277,0.155,0.095,north-northwest,5.6,No
2019/04/22,22:00,0.205,0.192,0.313,0.293,0.276,0.156,0.094,north-northwest,5.3,No
2019/04/22,22:10,0.205,0.192,0.315,0.293,0.276,0.155,0.093,north-northwest,4.8,No
2019/04/22,22:20,0.207,0.193,0.314,0.292,0.277,0.155,0.095,north-northwest,4.6,No
2019/04/22,22:30,0.205,0.192,0.312,0.293,0.276,0.155,0.095,north-northwest,4.8,No
2019/04/22,22:40,0.205,0.191,0.314,0.292,0.278,0.156,0.094,north-northwest,4.2,No
2019/04/22,22:50,0.207,0.193,0.315,0.292,0.276,0.155,0.094,north-northwest,4.1,No
2019/04/22,23:00,0.206,0.190,0.313,0.293,0.275,0.157,0.094,north-northwest,3.9,No
2019/04/22,23:10,0.207,0.191,0.314,0.293,0.276,0.155,0.095,north-northwest,3.7,No
2019/04/22,23:20,0.207,0.192,0.313,0.294,0.275,0.156,0.095,north-northwest,3.0,No
2019/04/22,23:30,0.206,0.192,0.314,0.293,0.276,0.156,0.094,north-northwest,2.8,No
2019/04/22,23:40,0.205,0.191,0.313,0.291,0.277,0.156,0.094,north-northwest,2.6,No
2019/04/22,23:50,0.205,0.192,0.314,0.293,0.276,0.155,0.095,north,2.2,No
